Weather in Nampula

Mozambique     15°07′08″S   39°15′43″E
temp.,
°C
wind,
m/s
gust,
m/s
humid.,
%
clouds,
%
prec.,
mm/h
press.,
hPa
HPBL,
m
11 april, sun
sun1123:00+20sw2599100 0.0 1015167
02:00+20sw2699100 0.0 1014313
05:00+21sw2798100 0.0 1015412
08:00+23ssw3691100 0.1 1017496
11:00+27s457193 0.3 10161151
14:00+26sse457691 1.4 1014958
17:00+23s279673 1.9 1015399
20:00+21ssw279993 2.1 1018293
12 april, mon
mon1223:00+20sw269998 0.0 1017249
02:00+20sw2710056 0.0 1016282
05:00+20sw2710052 0.0 1017266
08:00+23ssw379161 0.0 1018484
11:00+26ssw457781 0.3 1017987
14:00+25s4684100 2.3 1014797
17:00+22s2898100 3.4 1015314
20:00+22s2997100 6.1 1017451
13 april, tue
tue1323:00+21ssw399899 0.1 1017414
02:00+21ssw299951 0.1 1015373
05:00+21ssw31099100 0.0 1016453
08:00+23ssw4991100 0.1 1018674
11:00+26s467193 0.5 10161252
14:00+25s468589 2.6 1014951
17:00+22s3894100 4.8 1015308
20:00+21s2998100 5.3 1017367
14 april, wed
wed1423:00+20ssw2998100 0.0 1017366
02:00+19sw2999100 0.0 1015305
05:00+19sw2698100 0.0 1016190
08:00+23ssw3886100 0.0 1017461
11:00+26ssw4569100 0.1 10151259
14:00+25s3684100 0.9 1013573
17:00+22s37936 2.1 1014269
20:00+20s299629 2.3 1016329
15 april, thu
thu1523:00+19sw289791 0.0 1016257
02:00+19sw259764 0.0 1014142
05:00+18sw24975 0.0 1015103
08:00+22ssw388399 0.0 1016502
11:00+25ssw4465100 0.0 10151189
14:00+26ssw3464100 0.0 10131457
17:00+23s2280100 0.0 101448
20:00+21s2688100 0.0 1016151